User: anonymous   Login
Location: Brahman Valley
(40.6513°N, 111.8855°W)
Time: 02:56:01
(UTC+00:00)
Language:

deb Explorer IX - Orbit

View from above orbital plane
View from above orbital plane
View from above satellite
View from above satellite

Ground track
Ground track

The orbit data is extracted from the following two-line orbital elements,

1 00085U 61004C   21131.10253127  .00000340  00000-0  91483-4 0  9999
2 00085  38.7730 147.9935 0386946 164.3069 197.0063 14.21663155977728
Epoch (UTC): 11 May 2021 02:27:38
Eccentricity: 0.0386946
inclination: 38.7730°
perigee height: 541 km
apogee height: 1098 km
right ascension of ascending node: 147.9935°
argument of perigee: 164.3069°
revolutions per day: 14.21663155
mean anomaly at epoch: 197.0063°
orbit number at epoch: 97772

The dashed part of the orbit path shows where the satellite is in the earth's shadow,  

DLR